TimeEST,TemperatureF,Dew PointF,Humidity,Sea Level PressureIn,VisibilityMPH,Wind Direction,Wind SpeedMPH,Gust SpeedMPH,PrecipitationIn,Events,Conditions,WindDirDegrees,DateUTC
12:54 AM,37.0,27.0,67,30.43,10.0,Calm,Calm,-,N/A,,Clear,0,2012-11-18 05:54:00
1:54 AM,36.0,27.0,70,30.43,10.0,NE,5.8,-,N/A,,Clear,40,2012-11-18 06:54:00
2:54 AM,37.0,27.0,67,30.43,10.0,East,5.8,-,N/A,,Clear,80,2012-11-18 07:54:00
3:54 AM,37.0,26.1,65,30.42,10.0,East,5.8,-,N/A,,Clear,80,2012-11-18 08:54:00
4:54 AM,37.9,26.1,62,30.42,10.0,East,5.8,-,N/A,,Clear,90,2012-11-18 09:54:00
5:54 AM,37.0,26.1,65,30.43,10.0,East,3.5,-,N/A,,Clear,100,2012-11-18 10:54:00
6:54 AM,36.0,26.1,67,30.44,10.0,East,3.5,-,N/A,,Clear,100,2012-11-18 11:54:00
7:54 AM,36.0,27.0,70,30.44,10.0,ESE,6.9,-,N/A,,Clear,120,2012-11-18 12:54:00
8:54 AM,44.1,28.9,55,30.44,10.0,ESE,4.6,-,N/A,,Clear,120,2012-11-18 13:54:00
9:54 AM,48.9,28.0,44,30.45,10.0,SE,5.8,-,N/A,,Clear,140,2012-11-18 14:54:00
10:54 AM,53.1,26.1,35,30.44,10.0,South,6.9,-,N/A,,Clear,170,2012-11-18 15:54:00
11:54 AM,55.9,25.0,30,30.43,10.0,South,5.8,-,N/A,,Clear,170,2012-11-18 16:54:00
12:54 PM,57.9,24.1,27,30.40,10.0,SSW,5.8,-,N/A,,Clear,210,2012-11-18 17:54:00
1:54 PM,61.0,24.1,24,30.39,10.0,Calm,Calm,-,N/A,,Clear,0,2012-11-18 18:54:00
2:54 PM,62.1,24.1,23,30.37,10.0,ENE,5.8,-,N/A,,Clear,60,2012-11-18 19:54:00
3:54 PM,61.0,27.0,27,30.36,10.0,ENE,5.8,-,N/A,,Clear,60,2012-11-18 20:54:00
4:54 PM,55.9,30.0,37,30.37,10.0,NE,6.9,-,N/A,,Clear,50,2012-11-18 21:54:00
5:54 PM,50.0,27.0,41,30.38,10.0,NE,6.9,-,N/A,,Clear,50,2012-11-18 22:54:00
6:54 PM,48.9,27.0,43,30.39,10.0,ENE,6.9,-,N/A,,Clear,60,2012-11-18 23:54:00
7:54 PM,46.9,28.0,48,30.40,10.0,ENE,4.6,-,N/A,,Clear,60,2012-11-19 00:54:00
8:54 PM,44.6,28.4,53,30.38,10.0,ENE,5.8,-,N/A,,Clear,60,2012-11-19 01:54:00
9:54 PM,41.0,28.0,60,30.39,10.0,ENE,3.5,-,N/A,,Clear,70,2012-11-19 02:54:00
10:54 PM,42.1,27.0,55,30.38,10.0,East,4.6,-,N/A,,Clear,90,2012-11-19 03:54:00
11:54 PM,39.0,27.0,62,30.37,10.0,Calm,Calm,-,N/A,,Clear,0,2012-11-19 04:54:00